Weather History for KAAO - May, 2013

Change the Weather History Date:

Friday, May 10, 2013

  Actual Average (KICT) Record (KICT)
Temperature  
Mean Temperature 62 °F 64 °F  
Max Temperature 70 °F 75 °F 100 °F (1967)
Min Temperature 53 °F 53 °F 37 °F (1946)
Degree Days  
Heating Degree Days 4 3  
Month to date heating degree days 41  
Since 1 July heating degree days 4549  
Cooling Degree Days 0 2  
Month to date cooling degree days 18  
Year to date cooling degree days 44  
Growing Degree Days 12 (Base 50)    
Moisture  
Dew Point 52 °F    
Average Humidity 76    
Maximum Humidity 94    
Minimum Humidity 51    
Precipitation  
Precipitation 0.00 in 0.14 in 1.60 in (1912)
Month to date precipitation 1.34  
Year to date precipitation 8.63  
Snow  
Snow 0.00 in 0.00 in 0.00 in (2007)
Month to date snowfall 0.0  
Since 1 July snowfall 14.9  
Snow Depth -    
Sea Level Pressure  
Sea Level Pressure 30.03 in    
Wind  
Wind Speed 10 mph (North)    
Max Wind Speed 16 mph    
Max Gust Speed 22 mph    
Visibility 9 miles    
Events      
T = Trace of Precipitation, MM = Missing Value Source: NWS Daily Summary

Daily Weather History Graph

Daily Weather History Graph

Search for Another Location

Airport or City:

Trip Planner

Search our weather history database for the weather conditions in past years. The results will help you decide how hot, cold, wet, or windy it might be!

Date:

Astronomy

May. 10, 2013 Rise Set
Actual Time 6:23 AM CDT 8:27 PM CDT
Civil Twilight 5:54 AM CDT 8:56 PM CDT
Nautical Twilight 5:19 AM CDT 9:32 PM CDT
Astronomical Twilight 4:40 AM CDT 10:10 PM CDT
Moon 6:48 AM CDT (5/10) 9:17 PM CDT (5/10)
Length of Visible Light 15h 02m
Length of Day
14h 04m
New Moon, 0% of the Moon is Illuminated
May 10
New Moon
May 17
First Quarter
May 24
Full
May 31
Last Quarter
Jun 8
New

Hourly Weather History & Observations

Time (CDT) Temp. Dew Point Humidity Pressure Visibility Wind Dir Wind Speed Gust Speed Precip Events Conditions
12:54 AM 57.0 °F 54.0 °F 89% 29.99 in 10.0 mi NNW 11.5 mph - N/A   Clear
1:54 AM 55.9 °F 53.1 °F 90% 29.99 in 10.0 mi NNW 9.2 mph - N/A   Clear
2:54 AM 54.0 °F 52.0 °F 93% 29.98 in 10.0 mi NNW 6.9 mph - N/A   Clear
3:54 AM 54.0 °F 52.0 °F 93% 29.99 in 9.0 mi NNW 10.4 mph - N/A   Scattered Clouds
4:05 AM 53.6 °F 51.8 °F 94% 30.00 in 9.0 mi NNW 10.4 mph - N/A   Mostly Cloudy
4:24 AM 53.6 °F 51.8 °F 94% 30.00 in 9.0 mi NNW 10.4 mph - N/A   Mostly Cloudy
4:31 AM 53.6 °F 51.8 °F 94% 30.00 in 9.0 mi NNW 11.5 mph - N/A   Partly Cloudy
4:52 AM 53.6 °F 51.8 °F 94% 30.00 in 8.0 mi NNW 10.4 mph - N/A   Scattered Clouds
4:54 AM 54.0 °F 52.0 °F 93% 29.98 in 8.0 mi NNW 9.2 mph - N/A   Mostly Cloudy
5:10 AM 55.4 °F 53.6 °F 94% 30.00 in 8.0 mi NNW 9.2 mph - N/A   Overcast
5:54 AM 55.0 °F 53.1 °F 93% 29.99 in 7.0 mi NNW 9.2 mph - N/A   Overcast
8:21 AM 57.2 °F 55.4 °F 94% 30.04 in 5.0 mi North 13.8 mph - N/A   Overcast
8:42 AM 59.0 °F 55.4 °F 88% 30.04 in 6.0 mi North 12.7 mph - N/A   Mostly Cloudy
8:54 AM 59.0 °F 55.0 °F 87% 30.04 in 6.0 mi North 12.7 mph - N/A   Mostly Cloudy
9:54 AM 59.0 °F 54.0 °F 83% 30.06 in 7.0 mi North 15.0 mph - N/A   Mostly Cloudy
10:03 AM 60.8 °F 53.6 °F 77% 30.07 in 10.0 mi North 16.1 mph - N/A   Mostly Cloudy
10:54 AM 63.0 °F 53.1 °F 70% 30.08 in 10.0 mi North 11.5 mph - N/A   Overcast
12:54 PM 63.0 °F 52.0 °F 67% 30.09 in 10.0 mi NNW 15.0 mph - N/A   Mostly Cloudy
1:54 PM 66.0 °F 52.0 °F 60% 30.06 in 10.0 mi North 11.5 mph - N/A   Mostly Cloudy
2:05 PM 68.0 °F 53.6 °F 60% 30.07 in 10.0 mi North 15.0 mph 20.7 mph N/A   Scattered Clouds
2:54 PM 68.0 °F 53.1 °F 59% 30.06 in 10.0 mi North 11.5 mph - N/A   Partly Cloudy
3:54 PM 70.0 °F 52.0 °F 53% 30.05 in 10.0 mi North 11.5 mph 19.6 mph N/A   Partly Cloudy
4:54 PM 70.0 °F 51.1 °F 51% 30.04 in 10.0 mi North 16.1 mph 21.9 mph N/A   Clear
5:54 PM 69.1 °F 50.0 °F 51% 30.02 in 10.0 mi North 11.5 mph - N/A   Partly Cloudy
6:54 PM 66.9 °F 48.9 °F 52% 30.03 in 10.0 mi NNE 11.5 mph - N/A   Clear
7:54 PM 63.0 °F 48.9 °F 60% 30.05 in 10.0 mi NNE 4.6 mph - N/A   Clear
8:54 PM 62.1 °F 48.0 °F 60% 30.06 in 10.0 mi Calm Calm - N/A   Clear
9:54 PM 61.0 °F 48.0 °F 62% 30.08 in 10.0 mi North 3.5 mph - N/A   Clear
10:54 PM 59.0 °F 46.9 °F 64% 30.08 in 10.0 mi North 4.6 mph - N/A   Clear
11:54 PM 59.0 °F 46.9 °F 64% 30.09 in 10.0 mi Calm Calm - N/A   Clear